Regional Weather Roundup
Issued by NWS Pendleton, OR

Home | Current Version | Previous Version | Text Only | Print | Product List | Glossary On
Versions: 1 2 3 4 5 6 7 8 9 10 11 12 13 14 15 16 17 18 19 20 21 22 23 24 25 26 27 28 29 30 31 32 33 34 35 36 37 38 39 40 41 42 43 44 45 46 47 48 49 50
000
ASUS46 KPDT 011210
RWRPDT
PENDLETON REGIONAL WEATHER ROUNDUP
NATIONAL WEATHER SERVICE PENDLETON OREGON
500 AM PDT TUE SEP 1 2015

NOTE: FAIR INDICATES FEW OR NO CLOUDS BELOW 12,000 FEET WITH NO
SIGNIFICANT WEATHER AND/OR OBSTRUCTIONS TO VISIBILITY.

# INDICATES UNOFFICIAL STATION AND DATA

WAZ520-011310-
EAST SLOPES OF WASHINGTON CASCADES

CITY            SKY/WX      TMP DP  RH  WIND    PRES   REMARKS
#BULLFROG 2SW   N/A         48  45  89  S3      27.50F
#BUMPING DAM    N/A         51  N/A N/A CALM    N/A
#CLE ELUM HS    N/A         55  45  69  W2      29.85S
#CLE ELUM LAKE  N/A         54  46  74  CALM    29.80F
#CLIFFDEL 2NW   N/A         50  44  80  CALM    N/A
#EASTON DOT     N/A         54  42  64  CALM    N/A
#GLENWOOD       N/A         55  48  77  S5      29.86S
#MANASTASH CYN  N/A         45  38  76  CALM    29.88F
#NELSON         N/A         54  48  80  CALM    29.84F
#NELSON 3SW     N/A         47  43  86  CALM    30.03F
#NILE           N/A         43  40  89  CALM    29.13S
#PEOH POINT     N/A         46  44  93  S5      N/A
#RONALD 2NW     N/A         56  28  34  NW2     29.78S
#SNOWDEN        N/A         49  40  71  CALM    N/A
#SOUTH BLEWITT  N/A         47  44  89  CALM    N/A
#TEANAWAY 4NE   N/A         53  48  83  CALM    N/A
#TROUT LAKE 1NE N/A         52  48  86  W1      29.90F
$$

WAZ521-011310-
SIMCOE HIGHLANDS

CITY            SKY/WX      TMP DP  RH  WIND    PRES   REMARKS
#BICKLETON HS   N/A         53  37  54  W8      N/A
#SATUS PASS DOT N/A         53  39  59  CALM    N/A
#CENTERVILLE 4W N/A         56  47  72  CALM    29.69F
#CENTERVILLE 1SWN/A         54  45  71  W6      29.85S
#GOLDENDALE     N/A         54  46  74  W5      N/A
#GOLDENDALE 1NE N/A         54  39  57  CALM    N/A
#GOODNOE HILLS  N/A         61  49  65  W17     N/A
#LYLE 6NE       N/A         57  49  75  SW6     29.85F
$$

WAZ026-011310-
KITTITAS VALLEY

CITY            SKY/WX      TMP DP  RH  WIND    PRES   REMARKS
ELLENSBURG AP   CLEAR       53  43  69  N5      29.87F
6HR MIN TEMP:   53; 6HR MAX TEMP:   60;

YTC-OPS AREA    CLEAR       51  42  71  SW13    29.87S
6HR MIN TEMP:   49; 6HR MAX TEMP:   54;

#ELLENSBURG CWU N/A         55  46  72  NW2     29.80S
#ELLENSBURG 3NE N/A         50  44  80  CALM    29.88F
#ELLENSBURG 1E  N/A         55  45  69  CALM    N/A
#KITTITAS 4N    N/A         51  43  74  N1      29.88F
#KITTITAS 3S    N/A         46  42  86  CALM    29.83S
#THORP 6N       N/A         53  46  77  W7      29.85S
$$

WAZ027-011310-
YAKIMA VALLEY

CITY            SKY/WX      TMP DP  RH  WIND    PRES   REMARKS
SUNNYSIDE AP    PTCLDY      48  46  93  N3      29.88S
6HR MIN TEMP:   48; 6HR MAX TEMP:   58;

YAKIMA AIRPORT  CLEAR       51  42  71  NW6     29.88S
6HR MIN TEMP:   50; 6HR MAX TEMP:   66;

YAKIMA-VAGABOND CLEAR       52  41  66  N6      29.88S
6HR MIN TEMP:   50; 6HR MAX TEMP:   64;

#DONALD 2NE     N/A         59  38  45  CALM    28.73S
#GRANDVIEW      N/A         53  46  77  CALM    29.87S
#MABTON         N/A         53  45  74  CALM    29.87F
#NACHES 2SW     N/A         52  46  80  W2      29.89S
#TERRACE HTS    N/A         54  44  69  CALM    29.80S
#TOPPENISH      N/A         53  47  80  CALM    29.77F
#WAPATO 4NE     N/A         59  38  45  CALM    28.73S
#W YAKIMA       N/A         56  45  66  CALM    29.83F
#WHITE SWAN 5E  N/A         59  47  64  W2      29.84S
#WILEY CITY 3W  N/A         50  37  61  CALM    29.85S
#ZILLAH DOT     N/A         53  47  80  NE5     N/A
$$

WAZ028-011310-
LOWER COLUMBIA BASIN...WASHINGTON

CITY            SKY/WX      TMP DP  RH  WIND    PRES   REMARKS
PASCO           PTCLDY      60  49  67  SW8     29.89S
6HR MIN TEMP:   59; 6HR MAX TEMP:   66;

#BENTON CITY    N/A         55  47  74  CALM    29.78R
#CONNELL 5N     N/A         52  46  80  S1      29.84F
#CONNELL 5NW    N/A         52  47  83  SW3     29.81F
#ELTOPIA 6NW    N/A         54  49  83  S1      28.85S
#KAHLOTUS       N/A         56  48  74  SW14G24 29.84F
#KENNEWICK      N/A         48  45  89  S3      27.50F
#KENNEWICK 3S   N/A         59  50  72  S7      29.85F
#PASCO-BROADMOORN/A         61  52  72  S7      29.77S
#PATERSON       N/A         62  52  70  SW3     29.86S
#PROSSER DOT    N/A         53  49  86  CALM    N/A
#PROSSER        N/A         61  42  50  S5      29.85S
#SAGEMOOR 2W    N/A         55  49  80  S2      29.71S
#TOUCHET 2S     N/A         62  49  62  S9      29.86F
#WEST PASCO     N/A         60  50  69  NW2     29.84S
$$

WAZ029-011310-
FOOTHILLS OF THE BLUES...WASHINGTON

CITY            SKY/WX      TMP DP  RH  WIND    PRES   REMARKS
WALLA WALLA AP  MOCLDY      62  47  58  S12     29.93R
6HR MIN TEMP:   62; 6HR MAX TEMP:   66;

#DAYTON SCHOOL  N/A         62  42  48  SE6     29.92R
#LOWDEN 2SE     N/A         62  50  65  SW5     29.88R
#PLEASANT VIEW 1N/A         53  46  77  S8      29.89S
#PRESCOTT       N/A         58  49  72  CALM    29.87S
#SUDBURY        N/A         62  N/A N/A CALM    N/A
#WHITMAN COLLEGEN/A         62  48  60  SE1     29.93R
#WALLA WALLA U  N/A         63  50  62  S6      29.88S
#WHITMAN MISSIONN/A         63  50  62  S7      29.90S
$$

WAZ030-011310-
BLUE MOUNTAINS...WASHINGTON

CITY            SKY/WX      TMP DP  RH  WIND    PRES   REMARKS
#SKI BLUEWOOD   N/A         48  42  80  S5      29.97F
$$

ORZ009-041-WAZ024-011310-
COLUMBIA RIVER GORGE

CITY            SKY/WX      TMP DP  RH  WIND    PRES   REMARKS
THE DALLES AP   PTCLDY      62  50  65  W8      29.91S
6HR MIN TEMP:   61; 6HR MAX TEMP:   68;

#ARLINGTON AIRPON/A         61  48  62  W12     29.81S
#MARYHILL       N/A         61  47  60  CALM    N/A
#MOSIER 1S      N/A         60  45  58  N9      29.93S

$$

ORZ510-011310-
NORTH CENTRAL OREGON

CITY            SKY/WX      TMP DP  RH  WIND    PRES   REMARKS
#CHENOWITH 1W   N/A         55  49  80  W23     N/A
#GRASS VALLEY 1SN/A         46  43  89  E1      29.93S
#MAUPIN SCHOOL  N/A         59  48  67  CALM    29.94S
#MORO SCHOOL    N/A         53  51  93  W5      29.95F
#SHANIKO 4NW    N/A         50  45  83  NW5     29.98S
#TYGH VALLEY 2NEN/A         53  46  77  W1      29.89S
#WAPANITIA AIRPON/A         57  47  69  W3      29.89S
#WASCO 5NE      N/A         52  46  80  CALM    29.88F
$$

ORZ511-011310-
CENTRAL OREGON

CITY            SKY/WX      TMP DP  RH  WIND    PRES   REMARKS
BEND AIRPORT    MOCLDY      45  39  79  CALM    29.98S
PRINEVILLE AP   MOCLDY      41  37  86  CALM    29.97S
REDMOND AIRPORT MOCLDY      39  35  85  CALM    29.97S
6HR MIN TEMP:   39; 6HR MAX TEMP:   52;

#BEND 1SW       N/A         50  46  86  CALM    N/A
#BEND-AWBREY    N/A         50  42  74  S2      29.86S
#BEND-KIM LN    N/A         48  44  86  S2      29.95S
#CULVER         N/A         50  44  80  CALM    29.93S
#LAKE BILLY CHINN/A         55  37  51  CALM    30.02S
#MADRAS         N/A         51  44  77  E1      N/A
#POWELL BUTTE 3EN/A         45  40  82  SE2     N/A
#POWELL BUTTE   N/A         49  41  74  S1      29.60F
#PRINEVILLE 3N  N/A         44  40  86  CALM    29.86S
#WARM SPRINGS   N/A         54  45  71  CALM    29.92F

$$


ORZ509-011310-
EAST SLOPES OF OREGON CASCADES

CITY            SKY/WX      TMP DP  RH  WIND    PRES   REMARKS
#CAMP SHERMAN   N/A         46  43  89  CALM    29.88S
#LA PINE 4NW    N/A         36  32  85  CALM    29.95S
#SISTERS AIRPOR N/A         42  40  93  CALM    30.17S
#SISTERS 3N     N/A         43  36  76  CALM    29.99F
#SUNRIVER       N/A         44  42  93  CALM    29.77S
#TUMALO 3W      N/A         51  43  74  SE2     29.77S

$$

ORZ044-011310-
LOWER COLUMBIA BASIN...OREGON

CITY            SKY/WX      TMP DP  RH  WIND    PRES   REMARKS
HERMISTON       PTCLDY      58  49  72  S9      29.90F
6HR MIN TEMP:   57; 6HR MAX TEMP:   66;

#BOARDMAN SCHOOLN/A         60  49  67  S5      29.90S
#BOARDMAN 8SW   N/A         58  51  77  SW8     29.88S
#ECHO 8SW       N/A         57  48  72  S1      29.92S
#IONE SCHOOL    N/A         59  42  53  CALM    29.90F
#IRRIGON 4NW    N/A         60  51  72  S10     N/A
#UMATILLA SCHOOLN/A         59  54  83  S7      29.93S
#UMATILLA       N/A         61  47  60  S8      29.81S
$$

ORZ507-011310-
NORTHERN FOOTHILLS OF THE BLUES

CITY            SKY/WX      TMP DP  RH  WIND    PRES   REMARKS
PENDLETON AIRPT MOCLDY      53  45  74  S8      29.94R
6HR MIN TEMP:   53; 6HR MAX TEMP:   63;

#ADAMS 3WNW     N/A         52  46  80  CALM    29.90S
#ATHENA         N/A         57  47  69  CALM    29.91S
#CAYUSE         N/A         56  47  72  E5      29.90R
#HELIX SCHOOL   N/A         56  47  72  S6      29.88S
#HELIX 3N       N/A         56  47  72  S9      29.91S
#HELIX 6SW      N/A         56  47  72  CALM    29.94R
#HOLDMAN 5SE    N/A         56  47  72  CALM    29.94R
#HOLDMAN 6E     N/A         57  48  72  N7      29.70R
#M-F GROVE ELEM N/A         60  46  60  SW2     29.91S
#M-FREEWATER 5SEN/A         59  48  67  CALM    29.94R
#PENDLETON DNTN N/A         56  44  64  CALM    29.96S
#PDT SUNRIDGE   N/A         53  47  80  E1      29.95S
#PENDLETON 7NW  N/A         59  48  67  CALM    32.07S
#TUTUILLA       N/A         51  46  83  CALM    29.92S
#UMAPINE 2E     N/A         57  49  75  CALM    29.90R
#WESTON SCHOOL  N/A         57  45  64  W3      29.86S

$$

ORZ508-011310-
SOUTHERN FOOTHILLS OF THE BLUES

CITY            SKY/WX      TMP DP  RH  WIND    PRES   REMARKS
#AJAX           N/A         52  41  66  CALM    29.88F
#CONDON SCHOOL  N/A         52  46  80  S1      29.93S
#FOSSIL SCHOOL  N/A         66  51  58  CALM    29.94S
#HEPPNER EOC    N/A         53  45  74  SW3     29.83S
#HEPPNER 4NE    N/A         51  45  80  CALM    29.88F
#LEXINGTON 2SE  N/A         52  44  74  CALM    29.92S
#OLEX 4N        N/A         56  49  77  SW7     29.91S
#RUGGS 5NE      N/A         51  47  86  S6      30.14S
#RUGGS 2SW      N/A         52  46  80  W5      29.91S

$$

ORZ502-503-011310-
BLUE MOUNTAINS

CITY            SKY/WX      TMP DP  RH  WIND    PRES   REMARKS
MEACHAM         CLOUDY      40  37  89  CALM    29.99S
6HR MIN TEMP:   40; 6HR MAX TEMP:   48;

#HEPPNER 15SE   N/A         44  40  86  CALM    29.89S
#LONG CREEK HS  N/A         49  46  89  CALM    29.94R
#PIKES PEAK     N/A         53  45  74  SW16    27.99S
#TOLLGATE       N/A         44  42  93  CALM    29.87F
#TROY SCHOOL    N/A         55  46  72  CALM    29.73R
#UKIAH          N/A         41  39  93  CALM    29.96S
#WESTON 4E      N/A         52  45  77  S1      29.84S
$$

ORZ505-011310-
JOHN DAY BASIN

CITY            SKY/WX      TMP DP  RH  WIND    PRES   REMARKS
JOHN DAY        MOCLDY      53  40  61  E9      30.00R HAZE
#JOHN DAY KJDY  N/A         49  -48  1  CALM    30.09F
#MITCHELL       N/A         48  43  83  CALM    30.14S
#MITCHELL 8NW   N/A         53  45  74  CALM    30.05F
#MONUMENT HS    N/A         51  42  71  CALM    29.96S
#MT. VERNON 5SE N/A         52  40  63  CALM    29.95S
#SPRAY SCHOOL   N/A         50  N/A N/A CALM    N/A
$$

ORZ506-011310-
OCHOCO AND JOHN DAY HIGHLANDS

CITY            SKY/WX      TMP DP  RH  WIND    PRES   REMARKS
#PINE MTN OBS   N/A         53  13  20  SW5     N/A
#PRAIRIE CITY   N/A         45  41  86  CALM    30.04S
#SENECA         N/A         40  N/A N/A CALM    N/A
#SENECA 9NW     N/A         38  33  82  CALM    29.89S
$$

ORZ049-011310-
GRANDE RONDE VALLEY

CITY            SKY/WX      TMP DP  RH  WIND    PRES   REMARKS
LA GRANDE       CLOUDY      54  37  52  CALM    29.96R
#COVE           N/A         49  46  89  CALM    29.99R
#COVE SCHOOL    N/A         48  44  86  CALM    30.00R
#ELGIN 3N       N/A         48  41  77  CALM    29.95R
#ELGIN 1E       N/A         47  41  79  CALM    N/A
#ISLAND CITY 4N N/A         58  56  93  CALM    29.95S
#LA GRANDE ELEM N/A         55  45  69  W7      29.99R
#UNION 1S       N/A         54  46  74  CALM    29.78S
$$

ORZ050-011310-
WALLOWA COUNTY

CITY            SKY/WX      TMP DP  RH  WIND    PRES   REMARKS
#ENTERPRISE HS  N/A         46  43  89  CALM    30.00R
#IMNAHA SCHOOL  N/A         56  46  69  S1      29.92R
#IMNAHA 10S     N/A         56  43  62  S1      29.95R
#JOSEPH 3N      N/A         44  37  76  CALM    30.00S
#JOSEPH 3W      N/A         48  44  86  CALM    29.83S
#LOSTINE        N/A         46  42  86  CALM    29.70R
#MT HOWARD 8000 N/A         50  31  48  SW6     30.14S
#PROMISE 1S     N/A         51  43  74  CALM    29.94R
#WALLOWA SCHOOL N/A         44  42  93  CALM    29.94R



$$



USA.gov is the U.S. government's official web portal to all federal, state and local government web resources and services.